Home   Weather   Garbsen   Past weeks

Flag for Germany Past Weather in Garbsen, Lower Saxony, Germany — Yesterday and Last 2 Weeks

Now
45 °F

Broken clouds.


Feels Like: 38 °F
Forecast: 34 / 54 °F
Wind: 15 mph from Northwest

Location: Hannover

Current Time: Apr 23, 2017 at 8:21:45 pm

Latest Report: Apr 23, 2017 at 7:50 pm


Visibility: N/A

Pressure: 30.18 "Hg

Humidity: 61%

Dew Point: 32 °F

Location of GarbsenLocation

Past Weather in Garbsen — Graph

°F

Garbsen Temperature Yesterday

Maximum temperature yesterday: 50 °F (at 3:20 pm)
Minimum temperature yesterday: 39 °F (at 4:50 am)
Average temperature yesterday: 44 °F

High & Low Weather Summary for the Past Weeks

 TemperatureHumidityPressure
High68 °F (Apr 9, 4:20 pm)100% (Apr 9, 2:50 am)30.63 "Hg (Apr 9, 2:50 am)
Low25 °F (Apr 20, 4:50 am)37% (Apr 20, 4:50 pm)29.80 "Hg (Apr 13, 12:20 am)
Average45 °F73%30.13 "Hg
* Reported Apr 8 7:20 pm — Apr 23 7:20 pm, Garbsen, Weather by CustomWeather, © 2017

Note: Actual official high and low records may vary slightly from our data, if they occured in-between our weather recording intervals... More about our weather records

Advertising

Garbsen Weather History for the Previous 24 Hours

Scroll right to see more
 ConditionsComfort  
Time TempWeatherWind HumidityBarometerVisibility
7:20 pm
Sun, Apr 23
46 °FBroken clouds.15 mph53%30.18 "HgN/A
6:50 pm46 °FScattered clouds.15 mph53%30.15 "HgN/A
6:20 pm46 °FScattered clouds.14 mph53%30.15 "HgN/A
5:50 pm48 °FBroken clouds.17 mph50%30.15 "HgN/A
5:20 pm48 °FBroken clouds.12 mph62%30.15 "HgN/A
4:50 pm46 °FBroken clouds.14 mph66%30.18 "HgN/A
4:20 pm45 °FBroken clouds.10 mph81%30.18 "HgN/A
3:50 pm45 °FSprinkles. Broken clouds.13 mph71%30.18 "HgN/A
3:20 pm46 °FSprinkles. Partly sunny.13 mph66%30.15 "HgN/A
2:50 pm46 °FScattered showers. Partly sunny.13 mph62%30.15 "HgN/A
2:20 pm45 °FPartly sunny.17 mph71%30.18 "HgN/A
1:50 pm45 °FPartly sunny.17 mph66%30.18 "HgN/A
1:20 pm48 °FBroken clouds.16 mph58%30.15 "HgN/A
12:50 pm46 °FScattered clouds.18 mph62%30.18 "HgN/A
12:20 pm45 °FBroken clouds.16 mph61%30.18 "HgN/A
11:50 am45 °FBroken clouds.20 mph61%30.18 "HgN/A
11:20 am45 °FPartly sunny.20 mph61%30.18 "HgN/A
10:50 am43 °FPartly sunny.18 mph66%30.18 "HgN/A
10:20 am43 °FPartly sunny.17 mph71%30.18 "HgN/A
9:50 am45 °FScattered clouds.15 mph71%30.18 "HgN/A
9:20 am43 °FBroken clouds.16 mph76%30.18 "HgN/A
8:50 am41 °FScattered clouds.16 mph81%30.18 "HgN/A
8:20 am41 °FBroken clouds.12 mph81%30.18 "HgN/A
7:50 am39 °FBroken clouds.13 mph87%30.18 "HgN/A
7:20 am39 °FSprinkles. Partly sunny.13 mph87%30.15 "HgN/A
6:50 am39 °FScattered showers. Broken clouds.15 mph87%30.15 "HgN/A
6:20 am37 °FBroken clouds.12 mph93%30.15 "HgN/A
5:50 am37 °FPassing clouds.13 mph93%30.15 "HgN/A
5:20 am39 °FPassing clouds.14 mph87%30.15 "HgN/A
4:50 am37 °FPassing clouds.12 mph87%30.15 "HgN/A
4:20 am37 °FPassing clouds.13 mph87%30.15 "HgN/A
3:50 am39 °FPassing clouds.13 mph87%30.15 "HgN/A
3:20 am37 °FPassing clouds.14 mph93%30.15 "HgN/A
2:50 am37 °FPassing clouds.12 mph87%30.15 "HgN/A
2:20 am37 °FPassing clouds.12 mph87%30.15 "HgN/A
1:50 am37 °FPassing clouds.12 mph93%30.15 "HgN/A
1:20 am39 °FPassing clouds.13 mph87%30.15 "HgN/A
12:50 am39 °FPassing clouds.13 mph87%30.15 "HgN/A
12:20 am39 °FPassing clouds.12 mph87%30.15 "HgN/A
11:50 pm
Sat, Apr 22
41 °FPassing clouds.15 mph81%30.15 "HgN/A
11:20 pm41 °FSprinkles. Passing clouds.15 mph81%30.15 "HgN/A
10:50 pm41 °FPassing clouds.14 mph81%30.15 "HgN/A
10:20 pm41 °FPassing clouds.14 mph81%30.15 "HgN/A
9:50 pm41 °FPassing clouds.14 mph76%30.15 "HgN/A
9:20 pm39 °FPassing clouds.7 mph75%30.15 "HgN/A
8:50 pm43 °FPassing clouds.14 mph76%30.12 "HgN/A
8:20 pm45 °FScattered showers. Scattered clouds.12 mph61%30.12 "HgN/A
Weather by CustomWeather, © 2017

See weather overviewHow to use our weather pages